GW7853 Weather Reports


time (UTC)temp
C
wind
direction
speed
KPH
gust
KPH
rain 1hr
cm
rain 24hr
cm
rain mn
cm
humidity
%
barometer
mb
20260904022029 26 44 0.0 0.0 0.00 0.00 0.00 53 997.0
20260904021529 26 44 0.0 0.0 0.00 0.00 0.00 54 995.6
20260904021029 26 44 0.0 0.0 0.00 0.00 0.00 54 994.3
20260904020529 26 44 0.0 0.0 0.00 0.00 0.00 55 992.4
20260904020029 26 44 0.0 0.0 0.00 0.00 0.00 54 991.1
20260904015529 26 44 0.0 0.0 0.00 0.00 0.00 55 989.7
20260904015029 26 44 0.0 0.0 0.00 0.00 0.00 54 988.2
20260904014529 26 44 0.0 0.0 0.00 0.00 0.00 56 987.1
20260904014029 26 44 0.0 0.0 0.00 0.00 0.00 57 985.5
20260904013529 26 44 0.0 0.0 0.00 0.00 0.00 55 984.3
20260904013029 26 44 0.0 0.0 0.00 0.00 0.00 57 982.8
20260904012529 26 44 0.0 0.0 0.00 0.00 0.00 58 981.4
20260904012029 26 44 0.0 0.0 0.00 0.00 0.00 58 979.7
20260904011529 26 44 0.0 0.0 0.00 0.00 0.00 59 978.2
20260904011029 26 44 0.0 0.0 0.00 0.00 0.00 60 977.1
20260904010529 26 44 0.0 0.0 0.00 0.00 0.00 60 975.7
20260904010029 26 44 0.0 0.0 0.00 0.00 0.00 60 974.3
20260904005529 26 44 0.0 0.0 0.00 0.00 0.00 59 972.6
20260904005029 26 44 0.0 0.0 0.00 0.00 0.00 58 971.1
20260904004529 26 44 0.0 0.0 0.00 0.00 0.00 56 969.4
20260904004029 26 44 0.0 0.0 0.00 0.00 0.00 57 968.5
20260904003529 26 44 0.0 0.0 0.00 0.00 0.00 58 967.1
20260904003029 26 44 0.0 0.0 0.00 0.00 0.00 58 965.7
20260904002529 26 44 0.0 0.0 0.00 0.00 0.00 58 964.2
20260904002029 27 44 0.0 0.0 0.00 0.00 0.00 60 962.8
20260904001529 27 44 0.0 0.0 0.00 0.00 0.00 60 961.4
20260904001029 27 44 0.0 0.0 0.00 0.00 0.00 61 960.0
20260904000529 27 44 0.0 0.0 0.00 0.00 0.00 66 958.5
20260904000029 27 44 0.0 0.0 0.00 0.00 0.00 66 957.1
20260903235529 27 44 0.0 0.0 0.00 0.00 0.00 66 955.7
20260903235029 27 44 0.0 0.0 0.00 0.00 0.00 66 954.3
20260903234529 27 44 0.0 0.0 0.00 0.00 0.00 66 952.7
20260903234029 27 44 0.0 0.0 0.00 0.00 0.00 66 951.0
20260903233529 27 44 0.0 0.0 0.00 0.00 0.00 66 950.0
20260903233029 27 44 0.0 0.0 0.00 0.00 0.00 65 948.5
20260903232529 27 44 0.0 0.0 0.00 0.00 0.00 65 946.9
20260903232028 27 44 0.0 0.0 0.00 0.00 0.00 65 945.7
20260903231529 27 44 0.0 0.0 0.00 0.00 0.00 65 944.1
20260903231029 27 44 0.0 0.0 0.00 0.00 0.00 65 942.7
20260903230528 27 44 0.0 0.0 0.00 0.00 0.00 65 941.4
20260903230029 27 44 0.0 0.0 0.00 0.00 0.00 65 939.9
20260903225529 27 44 0.0 0.0 0.00 0.00 0.00 65 938.5
20260903225028 27 44 0.0 0.0 0.00 0.00 0.00 65 937.1
20260903224529 27 44 0.0 0.0 0.00 0.00 0.00 65 935.7
20260903224029 27 44 0.0 0.0 0.00 0.00 0.00 65 934.2
20260903223528 27 44 0.0 0.0 0.00 0.00 0.00 65 932.7
20260903223028 27 44 0.0 0.0 0.00 0.00 0.00 65 931.4